#timestamp,LO_Frequency,Hit,StdDev 
1583226015.7,286047000.7,N
1583226035.6,286046998.4,N
1583226055.4,286046996.5,N
1583226075.3,286046997.4,N
1583226095.1,286046999.1,N
1583226115.8,286046999.2,N
1583226135.7,286046997.7,N
1583226155.5,286046996.8,N
1583226175.3,286046998.5,N
1583226195.2,286047000.6,N
1583226215.0,286047001.2,N
1583226215.9,286047001.2,N
1583226235.8,286047001.2,N
1583226255.6,286047000.0,N
1583226275.4,286047000.6,N
1583226295.3,286046998.4,N
1583226315.1,286046998.7,N
1583226335.9,286047000.6,N
1583226355.7,286047000.5,N
1583226375.5,286046998.1,N
1583226395.4,286046998.8,N
1583226415.2,286047000.7,N
1583226435.0,286046999.4,N
1583226435.9,286046999.4,N
1583226455.8,286046997.9,N
1583226475.6,286046996.6,N
1583226495.5,286046997.3,N
1583226515.3,286046997.4,N
1583226535.1,286046997.9,N
1583226555.9,286046997.3,N
1583226575.7,286046997.1,N
1583226595.5,286046996.9,N
1583226615.4,286046996.9,N
1583226635.2,286046996.6,N
1583226655.1,286046998.2,N
1583226656.0,286046998.2,N
1583226675.8,286046999.2,N
1583226695.6,286046998.7,N
1583226715.5,286046997.0,N
1583226735.3,286046995.3,Y
1583226755.2,286047000.4,P
1583226775.9,286047004.1,P
1583226795.7,286047000.1,N
1583226815.6,286047003.5,N
1583226835.4,286047004.0,N
1583226855.3,286047004.0,N
1583226875.1,286047003.9,N
1583226876.0,286047003.9,N
1583226895.8,286047004.0,N
1583226915.7,286047004.3,N
1583226935.5,286047001.6,N
1583226955.3,286047004.3,N
1583226975.2,286047001.9,N
1583226995.0,286047000.3,N
1583226995.9,286047000.3,N
1583227015.8,286047000.3,N
1583227035.6,286047000.1,N
1583227055.4,286047002.7,N
1583227075.3,286047002.4,N
1583227095.1,286047000.6,N
1583227115.8,286047001.0,N
1583227135.7,286046999.2,N
1583227155.5,286046998.8,N
1583227175.4,286047000.3,N
1583227195.2,286047000.3,N
1583227215.0,286047002.4,N
1583227215.9,286047002.4,N
1583227235.8,286047001.6,N
1583227255.6,286047004.2,N
1583227275.5,286047003.8,N
1583227295.3,286047003.2,N
1583227315.1,286047001.8,N
1583227335.9,286047002.4,N
1583227355.7,286046999.8,N
1583227375.5,286047000.3,N
1583227395.4,286047000.6,N
1583227415.2,286046999.1,N
1583227435.1,286046996.5,N
1583227436.0,286046996.5,N
1583227455.8,286046999.0,N
1583227475.6,286047001.2,N
1583227495.5,286047001.0,N
1583227515.3,286046998.4,N
1583227535.1,286047000.0,N
1583227555.9,286046999.9,N
1583227575.7,286047001.1,N
1583227595.6,286047000.0,N
1583227615.4,286047000.3,N
1583227635.2,286046999.4,N
1583227655.1,286047000.2,N
1583227656.0,286047000.2,N
1583227675.8,286047001.1,N
1583227695.7,286046999.2,N
1583227715.5,286046998.5,N
1583227735.3,286046998.3,N
1583227755.2,286047001.2,N
1583227775.0,286047001.1,N
1583227775.9,286047001.1,N
1583227795.8,286047000.0,N
1583227815.6,286047001.9,N
1583227835.4,286047002.8,N
1583227855.3,286047002.5,N
1583227875.1,286047000.9,N
1583227895.8,286046998.6,N
1583227915.7,286046998.8,N
1583227935.5,286046996.7,N
1583227955.4,286046998.7,N
1583227975.2,286046998.7,N
1583227995.0,286047000.3,N
1583227995.9,286047000.3,N
1583228015.8,286047000.9,N
1583228035.6,286047000.1,N
1583228055.4,286047002.0,N
1583228075.3,286047001.3,N
1583228095.1,286047002.8,N
1583228115.9,286047000.1,N
1583228135.7,286047001.9,N
1583228155.5,286047004.2,N
1583228175.4,286047002.3,N
1583228195.2,286047000.5,N
1583228215.1,286047000.8,N
1583228216.0,286047000.8,N
1583228235.8,286046998.3,N
1583228255.6,286046995.6,N
1583228275.5,286046995.2,N
1583228295.3,286046997.4,N
1583228315.1,286046997.7,N
1583228335.9,286046995.4,N
1583228355.7,286046995.1,N
1583228375.6,286046999.3,N
1583228395.4,286046999.5,N
1583228415.2,286046997.0,N
1583228435.1,286046999.4,N
1583228436.0,286046999.4,N
1583228455.8,286046999.3,N
1583228475.7,286046999.6,N
1583228495.5,286046997.4,N
1583228515.3,286046997.8,N
1583228535.2,286046996.8,N
1583228555.0,286046995.1,N
1583228555.9,286046995.1,N
1583228575.8,286046997.2,N
1583228595.6,286046998.8,N
1583228615.4,286047001.1,N
1583228635.3,286047000.9,N
1583228655.1,286046999.9,N
1583228675.8,286047000.6,N
1583228695.7,286046998.1,N
1583228715.5,286047002.6,N
1583228735.4,286047002.6,N
1583228755.2,286047002.4,N
1583228775.0,286046999.9,N
1583228775.9,286046999.9,N
1583228795.8,286047002.4,N
1583228815.6,286047002.5,N
1583228835.4,286047001.3,N
1583228855.3,286047003.7,N
1583228875.1,286047003.9,N
1583228895.9,286047001.8,N
1583228915.7,286047001.9,N
1583228935.5,286047004.4,N
1583228955.4,286047001.5,N
1583228975.2,286047001.6,N
1583228995.0,286047000.3,N
1583228996.0,286047000.3,N
1583229015.8,286047001.7,N
1583229035.6,286047002.4,N
1583229055.5,286047001.2,N
1583229075.3,286046998.2,N
1583229095.1,286047001.2,N
1583229115.9,286047002.3,N
1583229135.7,286047004.0,N
1583229155.6,286047004.8,Y
1583229175.4,286047004.9,P
1583229195.2,286047006.3,P
1583229215.1,286047005.6,N
1583229216.0,286047005.6,N
1583229235.8,286047005.9,Y
1583229255.7,286046998.6,P
1583229275.5,286046998.4,N
1583229295.3,286046997.1,N
1583229315.2,286046998.2,N
1583229335.0,286046996.8,N
1583229335.9,286046996.8,N
1583229355.8,286046995.8,N
1583229375.6,286046997.6,N
1583229395.4,286046996.8,N
1583229415.3,286046998.9,N
1583229435.1,286047001.1,N
1583229455.8,286046999.7,N
1583229475.7,286047002.4,N
1583229495.5,286046999.8,N
1583229515.4,286046998.6,N
1583229535.2,286046998.2,N
1583229555.0,286046998.2,N
1583229555.9,286046998.2,N
1583229575.8,286046997.5,N
1583229595.6,286046995.2,N
